Regional Weather Roundup
Issued by NWS

Home | Current Version | Previous Version | Graphics & Text | Print | Product List | Glossary On
Versions: 1 2 3 4 5 6 7 8 9 10 11 12 13 14 15 16 17 18 19 20 21 22 23 24 25 26 27 28 29 30 31 32 33 34 35 36 37 38 39 40 41 42 43 44 45 46 47 48 49 50
000
ASUS43 KLMK 291102
RWRKY
KENTUCKY REGIONAL WEATHER ROUNDUP
NATIONAL WEATHER SERVICE LOUISVILLE KY
700 AM EDT FRI MAY 29 2015

NOTE "FAIR" INDICATES FEW OR NO CLOUDS BELOW 12,000 FEET
WITH NO SIGNIFICANT WEATHER AND/OR OBSTRUCTIONS TO VISIBILITY.

KYZ001>023-026-027-061>063-070>075-291200-
WESTERN AND SOUTH CENTRAL KENTUCKY

CITY           SKY/WX    TMP DP  RH WIND       PRES   REMARKS
PADUCAH        CLEAR     67  65  93 S5        30.05R
HENDERSON      CLEAR     66  63  88 S6        30.06R
OWENSBORO      CLEAR     68  66  93 SE3       30.09R
HOPKINSVILLE   MOCLDY    68  65  91 S13       30.10R
BOWLING GREEN  PTCLDY    65  62  90 SE3       30.13R
GLASGOW        NOT AVBL
$$

KYZ024-025-028>034-038-045-046-053-291200-
NORTH CENTRAL KENTUCKY

CITY           SKY/WX    TMP DP  RH WIND       PRES   REMARKS
LOUISVILLE/SDF MOCLDY    67  64  90 SE6       30.12R
LOUISVILLE/LOU PTCLDY    67  64  90 SE3       30.13R
FORT KNOX      MOCLDY    65  64  95 SE5       30.11R
$$

KYZ035>037-039>044-047>052-055>060-089>105-291200-
NORTHEAST KENTUCKY

CITY           SKY/WX    TMP DP  RH WIND       PRES   REMARKS
LEXINGTON      CLEAR     65  64  97 SE5       30.17R
COVINGTON      MOCLDY    66  65  96 SE3       30.15R
FRANKFORT      CLEAR     65  64  97 SE6       30.15R
$$

KYZ054-064>069-076>088-106>120-291200-
SOUTHEAST KENTUCKY

CITY           SKY/WX    TMP DP  RH WIND       PRES   REMARKS
JACKSON        PTCLDY    66  63  90 CALM      30.21R
LONDON         FOG       65  61  87 CALM      30.20R VSB 1/4
SOMERSET       NOT AVBL
MIDDLESBORO    CLOUDY    64  64 100 CALM      30.22R
MONTICELLO     MOSUNNY   62  62 100 CALM      30.20R
$$




USA.gov is the U.S. government's official web portal to all federal, state and local government web resources and services.